TimeMDT,TemperatureF,Dew PointF,Humidity,Sea Level PressureIn,VisibilityMPH,Wind Direction,Wind SpeedMPH,Gust SpeedMPH,PrecipitationIn,Events,Conditions,WindDirDegrees,DateUTC
12:53 AM,27.0,24.1,89,30.17,10.0,WNW,6.9,-,N/A,,Scattered Clouds,290,2012-11-03 06:53:00
1:53 AM,32.0,27.0,82,30.15,10.0,West,3.5,-,N/A,,Overcast,280,2012-11-03 07:53:00
2:53 AM,30.9,26.1,82,30.16,10.0,North,3.5,-,N/A,,Clear,10,2012-11-03 08:53:00
3:53 AM,25.0,23.0,92,30.18,10.0,West,8.1,-,N/A,,Partly Cloudy,260,2012-11-03 09:53:00
4:53 AM,23.0,19.9,88,30.20,10.0,WSW,5.8,-,N/A,,Clear,240,2012-11-03 10:53:00
5:53 AM,24.1,21.0,88,30.22,10.0,West,5.8,-,N/A,,Clear,280,2012-11-03 11:53:00
6:53 AM,23.0,21.0,92,30.23,10.0,WNW,3.5,-,N/A,,Clear,300,2012-11-03 12:53:00
7:53 AM,21.9,19.0,89,30.25,10.0,West,5.8,-,N/A,,Clear,280,2012-11-03 13:53:00
8:53 AM,30.9,27.0,85,30.24,10.0,Calm,Calm,-,N/A,,Clear,0,2012-11-03 14:53:00
9:53 AM,41.0,30.9,67,30.23,10.0,Calm,Calm,-,N/A,,Clear,0,2012-11-03 15:53:00
10:53 AM,48.0,30.0,50,30.21,10.0,SE,3.5,-,N/A,,Clear,140,2012-11-03 16:53:00
11:53 AM,55.0,30.0,38,30.18,10.0,SSE,8.1,-,N/A,,Clear,160,2012-11-03 17:53:00
12:53 PM,59.0,30.0,33,30.14,10.0,SSW,15.0,18.4,N/A,,Clear,200,2012-11-03 18:53:00
1:53 PM,60.1,30.0,32,30.10,10.0,WSW,10.4,21.9,N/A,,Clear,240,2012-11-03 19:53:00
2:53 PM,61.0,28.0,29,30.08,10.0,WSW,10.4,17.3,N/A,,Clear,240,2012-11-03 20:53:00
3:53 PM,60.1,26.1,27,30.09,10.0,West,10.4,-,N/A,,Clear,270,2012-11-03 21:53:00
4:53 PM,55.0,27.0,34,30.12,10.0,WNW,5.8,-,N/A,,Clear,300,2012-11-03 22:53:00
5:53 PM,44.1,27.0,51,30.14,10.0,West,5.8,-,N/A,,Clear,260,2012-11-03 23:53:00
6:53 PM,41.0,27.0,57,30.17,10.0,WSW,3.5,-,N/A,,Clear,250,2012-11-04 00:53:00
7:53 PM,34.0,25.0,70,30.21,10.0,West,5.8,-,N/A,,Clear,280,2012-11-04 01:53:00
8:53 PM,33.1,25.0,72,30.19,10.0,West,5.8,-,N/A,,Clear,260,2012-11-04 02:53:00
9:53 PM,28.0,24.1,85,30.17,10.0,West,5.8,-,N/A,,Clear,260,2012-11-04 03:53:00
10:53 PM,28.0,23.0,81,30.15,10.0,West,8.1,-,N/A,,Clear,270,2012-11-04 04:53:00
11:53 PM,25.0,21.9,88,30.13,10.0,West,8.1,-,N/A,,Clear,260,2012-11-04 05:53:00